Regional Weather Roundup
Issued by NWS Albany, NY

Home | Current Version | Previous Version | Text Only | Print | Product List | Glossary On
Versions: 1 2 3 4 5 6 7 8 9 10 11 12 13 14 15 16 17 18 19 20 21 22 23 24 25 26 27 28 29 30 31 32 33 34 35 36 37 38 39 40 41 42 43 44 45 46 47 48 49 50
354
ASUS41 KALY 202210
RWRALY

NEW YORK STATE HOURLY WEATHER ROUNDUP
NATIONAL WEATHER SERVICE ALBANY NY
500 PM EST FRI JAN 20 2017

NOTE: "FAIR" INDICATES FEW OR NO CLOUDS BELOW 12,000 FEET WITH NO
SIGNIFICANT WEATHER AND/OR NO OBSTRUCTIONS TO VISIBILITY.

NYZ032-033-038>043-046>054-057>066-NYZ062>081-082-084-202300-
EAST


CITY           SKY/WX    TMP DP  RH WIND       PRES   REMARKS
ALBANY         CLOUDY    40  31  70 S7        29.90F
GLENS FALLS    CLOUDY    36  30  79 CALM      29.90
POUGHKEEPSIE   CLOUDY    41  32  70 CALM      29.91S
NEWBURGH       CLOUDY    39  37  93 SE6       29.92S WCI  35
MONTGOMERY     CLOUDY    41  34  76 CALM      29.89S
WHITE PLAINS   CLOUDY    40  32  73 SE7       29.91F
ISLIP          CLOUDY    42  34  73 SE7       29.94F
NEW YORK CITY  LGT RAIN  45  37  73 VRB3      29.93F
CENTRAL PARK   LGT RAIN  41  38  89 S3        29.95S FOG
$$

NYZ005>009-017-018-044>046-055-056-202300-
CENTRAL


CITY           SKY/WX    TMP DP  RH WIND       PRES   REMARKS
FULTON         CLOUDY    40  34  79 SE7       29.78S
SYRACUSE       CLOUDY    42  36  79 E6        29.79R
ROME           CLOUDY    37  33  85 E8        29.85R WCI  31
ELMIRA         LGT RAIN  41  38  89 CALM      29.77S
BINGHAMTON     CLOUDY    36  34  92 S9        29.78S WCI  29
MONTICELLO     CLOUDY    36  34  93 SE6       29.87S WCI  31
$$

NYZ026>034-041>043-087-202300-
NORTH


CITY           SKY/WX    TMP DP  RH WIND       PRES   REMARKS
WATERTOWN      CLOUDY    40  35  83 E3        29.80S
FORT DRUM      NOT AVBL
OGDENSBURG     MOCLDY    36  32  85 NE3       29.83F
MASSENA        CLOUDY    36  30  79 NE6       29.86S WCI  31
SARANAC LAKE   CLOUDY    33  29  85 CALM      29.78S
PLATTSBURGH    CLOUDY    35  29  78 S10       29.86F WCI  27
$$

NYZ001>004-010>016-019>021-085-202300-
WEST


CITY           SKY/WX    TMP DP  RH WIND       PRES   REMARKS
NIAGARA FALLS  LGT RAIN  42  38  85 E6        29.71S FOG
BUFFALO        LGT RAIN  43  41  93 E3        29.71S FOG
DUNKIRK        CLOUDY    46  44  93 S12       29.71R
JAMESTOWN      CLOUDY    43  39  87 S6        29.71R VSB 1/2
WELLSVILLE     CLOUDY    41  38  89 CALM      29.74S
ROCHESTER      LGT RAIN  44  40  85 SE5       29.74S
PENN YAN       CLOUDY    42  35  76 S8        29.76R
$$

             KEY
       WCI = WIND CHILL INDEX
       VSB = VISIBILITY
       HX  = HEAT INDEX
$$




USA.gov is the U.S. government's official web portal to all federal, state and local government web resources and services.